Location: *
(49.9853°N, 3.5569°E)
Time: 23:30:52
(UTC+00:00)

Cosmos 1674 - Pass Details

Date: 22 September 2019
Orbit: 494 x 520 km, 82.5° (Epoch: 14 October)

Event Time Altitude Azimuth Distance (km) Brightness Sun altitude
Rises 18:40:57 0° 360° (N) 2,598 6.4 -9.8°
Reaches altitude 10° 18:43:23 10° 14° (NNE) 1,707 5.3 -10.2°
Maximum altitude 18:46:27 24° 70° (ENE) 1,071 3.8 -10.7°
Enters shadow 18:48:23 16° 112° (ESE) 1,354 4.2 -11.0°
